Home   Weather   Sheffield   Past weeks
Flag for United Kingdom

Past Weather in Sheffield, England, United Kingdom — Yesterday and Last 2 Weeks

Now
45 °F

Quite cool.


Feels Like: 38 °F
Forecast: 55 / 40 °F
Wind: 15 mph from Northwest

Location: Manchester Airport

Current Time: Mar 25, 2019 at 1:44:57 am

Latest Report: Mar 25, 2019 at 12:50 am


Visibility: N/A

Pressure: 30.36 "Hg

Humidity: 71%

Dew Point: 36 °F

Location of SheffieldLocation

Past Weather in Sheffield — Graph

°F

Sheffield Temperature Yesterday

Maximum temperature yesterday: 50 °F (at 12:50 pm)
Minimum temperature yesterday: 32 °F (at 5:20 am)
Average temperature yesterday: 44 °F

High & Low Weather Summary for the Past Weeks

 TemperatureHumidityPressure
High63 °F (Mar 20, 2:20 pm)100% (Mar 16, 1:50 am)30.54 "Hg (Mar 16, 1:50 am)
Low32 °F (Mar 24, 5:20 am)46% (Mar 11, 1:50 pm)29.18 "Hg (Mar 16, 3:50 pm)
Average46 °F79%29.99 "Hg
* Reported Mar 10 11:20 am — Mar 25 12:20 am, Sheffield. Weather by CustomWeather, © 2019

Note: Actual official high and low records may vary slightly from our data, if they occured in-between our weather recording intervals... More about our weather records

Advertising

Sheffield Weather History for the Previous 24 Hours

Scroll right to see more
 ConditionsComfort  
Time TempWeatherWind HumidityBarometerVisibility
12:20 am
Mon, Mar 25
45 °FPartly cloudy.15 mph76%30.36 "HgN/A
11:50 pm
Sun, Mar 24
45 °FPassing clouds.17 mph76%30.36 "HgN/A
11:20 pm45 °FPassing clouds.14 mph71%30.36 "HgN/A
10:50 pm45 °FPassing clouds.14 mph76%30.36 "HgN/A
10:20 pm45 °FQuite cool.10 mph81%30.36 "HgN/A
9:50 pm45 °FQuite cool.16 mph81%30.36 "HgN/A
9:20 pm45 °FOvercast.13 mph81%30.36 "HgN/A
8:50 pm45 °FLight rain. Partly cloudy.21 mph81%30.36 "HgN/A
8:20 pm46 °FPartly cloudy.16 mph82%30.36 "HgN/A
7:50 pm46 °FPassing clouds.16 mph82%30.36 "HgN/A
7:20 pm46 °FMostly cloudy.17 mph82%30.36 "HgN/A
6:50 pm46 °FScattered showers. Passing clouds.16 mph82%30.36 "HgN/A
6:20 pm48 °FSprinkles. Partly sunny.18 mph71%30.36 "HgN/A
5:50 pm48 °FScattered showers. Scattered clouds.18 mph66%30.36 "HgN/A
5:20 pm48 °FPartly sunny.18 mph66%30.36 "HgN/A
4:50 pm48 °FPartly sunny.18 mph66%30.36 "HgN/A
4:20 pm48 °FMore clouds than sun.16 mph66%30.36 "HgN/A
3:50 pm48 °FPartly sunny.17 mph62%30.36 "HgN/A
3:20 pm48 °FPartly sunny.20 mph62%30.39 "HgN/A
2:50 pm50 °FBroken clouds.18 mph58%30.39 "HgN/A
2:20 pm50 °FPartly sunny.21 mph58%30.39 "HgN/A
1:50 pm50 °FPassing clouds.20 mph54%30.39 "HgN/A
1:20 pm48 °FPassing clouds.17 mph58%30.39 "HgN/A
12:50 pm50 °FPassing clouds.16 mph58%30.42 "HgN/A
12:20 pm48 °FScattered clouds.17 mph58%30.42 "HgN/A
11:50 am48 °FScattered clouds.15 mph62%30.42 "HgN/A
11:20 am48 °FPartly sunny.17 mph58%30.42 "HgN/A
10:50 am48 °FPartly sunny.20 mph58%30.42 "HgN/A
10:20 am48 °FScattered clouds.16 mph58%30.45 "HgN/A
9:50 am46 °FScattered clouds.13 mph62%30.45 "HgN/A
9:20 am46 °FPassing clouds.12 mph71%30.45 "HgN/A
8:50 am45 °FPassing clouds.10 mph76%30.45 "HgN/A
8:20 am43 °FPartly sunny.6 mph81%30.45 "HgN/A
7:50 am37 °FChilly.3 mph93%30.45 "HgN/A
7:20 am36 °FPassing clouds.3 mph93%30.45 "HgN/A
6:50 am34 °FScattered clouds.5 mph93%30.45 "HgN/A
6:20 am32 °FChilly.3 mph93%30.45 "HgN/A
5:50 am34 °FFog.1 mph100%30.45 "HgN/A
5:20 am32 °FChilly.3 mph100%30.45 "HgN/A
4:50 am34 °FChilly.1 mph93%30.45 "HgN/A
4:20 am36 °FChilly.1 mph93%30.45 "HgN/A
3:50 am36 °FChilly.2 mph93%30.45 "HgN/A
3:20 am36 °FChilly.5 mph93%30.45 "HgN/A
2:50 am37 °FPassing clouds.3 mph87%30.48 "HgN/A
2:20 am39 °FPassing clouds.1 mph87%30.48 "HgN/A
1:50 am39 °FPassing clouds.2 mph87%30.48 "HgN/A
Weather by CustomWeather, © 2019

See weather overview